[[{"header":{"parameterUnit":"m.s-1","parameterCategory":1,"la1":30.2992,"la2":30.254,"lo1":-89.0895,"lo2":-89.0443,"dy":0.0025,"dx":0.0025,"nx":19,"ny":19,"refTime":"2026-03-11T09:00:00:Z","depth":0,"parameterNumber":2,"parameterNumberName":"U-component_of_WINDS"},"data":[0,0,0,3.7514,3.7516,3.7615,3.7615,3.7756,3.7757,0,0,0,0,0,0,0,0,0,0,0,3.7492,3.7493,3.7514,3.7516,3.7615,3.7615,3.7756,3.7757,0,0,0,0,0,0,0,0,0,0,0,3.7491,3.7492,3.7494,3.7517,3.7615,3.7615,3.7755,3.7676,0,0,0,0,0,0,0,0,0,0,3.7578,3.7564,3.7492,3.7494,3.7517,3.7615,3.7615,3.7672,3.7681,3.7717,0,3.7748,0,3.7755,3.7767,3.7768,0,0,0,3.7512,3.7556,3.7576,3.7494,3.7518,3.7615,3.7569,3.7677,3.7687,3.7729,3.775,3.7755,3.7757,3.7768,3.7769,3.7984,3.7986,0,0,3.7507,3.7513,3.7569,3.7583,3.7567,3.7566,3.7572,3.7683,3.7708,3.7751,3.7758,3.776,3.7769,3.7771,3.7983,3.7985,0,0,0,3.7494,3.751,3.7527,3.7578,3.7594,3.7569,3.7576,3.7703,3.7708,3.776,3.7761,3.777,3.7772,3.7982,3.7984,3.805,0,0,0,3.749,3.7502,3.7525,3.753,3.7592,3.7649,3.7594,3.77,3.7712,3.7761,3.777,3.7774,3.798,3.7983,3.8045,3.8081,0,0,0,3.7483,3.7501,3.7518,3.753,3.7573,3.7647,3.7659,3.7703,3.7714,3.7768,3.7774,3.798,3.7982,3.8041,3.8074,3.814,0,0,0,3.7477,3.7576,3.7519,3.763,3.7572,3.7687,3.7658,3.7743,3.7798,3.7771,3.7981,3.7984,3.804,3.807,3.8135,3.8197,3.8223,0,0,3.7606,3.7592,3.7657,3.7608,3.7735,3.7671,3.7809,3.7853,3.7853,3.7941,3.7946,3.8047,3.8074,3.8139,3.8365,3.8386,0,0,0,3.77,3.7747,3.7779,3.783,3.7865,3.7898,3.792,3.7937,3.8011,3.7899,3.8088,3.8104,3.8142,3.8171,3.8189,3.8222,3.7997,3.7997,3.7996,3.7893,3.7886,3.7993,3.7998,3.8048,3.8069,3.811,3.8136,3.8116,3.8161,3.8187,3.8325,3.8359,3.8373,3.8407,3.8218,3.8219,3.8219,3.8219,3.8081,3.8147,3.8116,3.8208,3.8201,3.828,3.8305,3.8287,3.8361,3.8304,3.8338,3.8277,3.8395,3.8425,3.8224,3.8223,3.8223,3.8222,3.8222,3.8208,3.8238,3.8255,3.8328,3.8386,3.8388,3.846,3.845,3.8443,3.8476,3.8503,3.8502,3.8501,3.8489,3.849,3.849,3.8491,3.8491,3.8491,3.8332,3.8349,3.841,3.8455,3.8487,3.8528,3.855,3.8582,3.8615,3.8603,3.8603,3.8579,3.8407,3.8365,3.8499,3.8497,3.8496,3.8496,3.8495,3.8528,3.8482,3.8576,3.8607,3.866,3.8719,3.8705,3.8771,3.8796,3.8832,3.88,3.8674,3.866,3.8646,3.8611,3.88,3.88,3.88,3.88,3.8636,3.8626,3.872,3.8772,3.8821,3.8819,3.8927,3.8945,3.8958,3.8974,3.8945,3.8897,3.8883,3.8877,3.8858,3.8825,3.9065,3.9065,3.9066,3.8756,3.8751,3.8844,3.8854,3.8894,3.893,3.9031,3.9093,3.9098,3.9076,3.8986,3.8975,3.8898,3.8873,3.885,3.882,3.876,0,0]},{"header":{"parameterUnit":"m.s-1","parameterCategory":1,"la1":30.2992,"la2":30.254,"lo1":-89.0895,"lo2":-89.0443,"dy":0.0025,"dx":0.0025,"nx":19,"ny":19,"refTime":"2026-03-11T09:00:00:Z","depth":0,"parameterNumber":3,"parameterNumberName":"V-component_of_WINDS"},"data":[0,0,0,3.1079,3.1082,3.12,3.1201,3.1351,3.1352,0,0,0,0,0,0,0,0,0,0,0,3.1043,3.1044,3.1079,3.1082,3.12,3.1201,3.1351,3.1352,0,0,0,0,0,0,0,0,0,0,0,3.1043,3.1044,3.1045,3.1083,3.12,3.1201,3.135,3.1262,0,0,0,0,0,0,0,0,0,0,3.1147,3.1112,3.1043,3.1045,3.1083,3.12,3.1201,3.1258,3.1267,3.1297,0,3.1322,0,3.1339,3.1362,3.1363,0,0,0,3.1084,3.1104,3.1137,3.1045,3.1084,3.12,3.1147,3.1263,3.1274,3.131,3.1324,3.1329,3.1342,3.1363,3.1364,3.1525,3.1526,0,0,3.1077,3.1064,3.1129,3.1144,3.1124,3.1144,3.1151,3.127,3.1285,3.1324,3.1333,3.1344,3.1364,3.1365,3.1524,3.1525,0,0,0,3.1057,3.1059,3.1089,3.1138,3.1159,3.1147,3.1156,3.1279,3.129,3.1335,3.1346,3.1365,3.1367,3.1524,3.1525,3.1546,0,0,0,3.1054,3.1048,3.1086,3.108,3.1157,3.122,3.1162,3.1282,3.1296,3.1345,3.1365,3.1368,3.1523,3.1524,3.1543,3.1558,0,0,0,3.1036,3.1046,3.1062,3.1079,3.1129,3.1219,3.1237,3.1285,3.1303,3.1363,3.1369,3.1522,3.1524,3.1541,3.1555,3.1597,0,0,0,3.1014,3.108,3.1062,3.114,3.1128,3.123,3.1236,3.1313,3.1367,3.1366,3.1523,3.1525,3.1541,3.1553,3.1595,3.1631,3.1645,0,0,3.109,3.1089,3.1136,3.1123,3.1225,3.1213,3.1319,3.1381,3.14,3.1482,3.1487,3.1544,3.1555,3.1597,3.1722,3.1732,0,0,0,3.1155,3.1189,3.1219,3.1269,3.1317,3.136,3.1407,3.143,3.15,3.1439,3.157,3.1577,3.1602,3.1621,3.163,3.1652,3.1532,3.1532,3.1531,3.1247,3.1265,3.1344,3.1376,3.1424,3.1471,3.1512,3.1551,3.1557,3.1587,3.1613,3.1686,3.1707,3.1713,3.1737,3.1632,3.1632,3.1632,3.1632,3.1361,3.1412,3.1416,3.1494,3.1513,3.1579,3.1626,3.1628,3.1693,3.1669,3.1692,3.1665,3.1724,3.1746,3.1634,3.1634,3.1634,3.1633,3.1633,3.1424,3.1452,3.1477,3.155,3.1604,3.1634,3.1696,3.1711,3.1726,3.1749,3.1778,3.1777,3.178,3.1761,3.1761,3.1761,3.1761,3.1762,3.1762,3.1481,3.1508,3.1558,3.1613,3.1646,3.1692,3.1738,3.1772,3.1813,3.182,3.182,3.1823,3.1726,3.1702,3.1766,3.1765,3.1765,3.1764,3.1764,3.1593,3.157,3.1646,3.168,3.1745,3.1798,3.1815,3.1882,3.1912,3.1942,3.1939,3.1864,3.1864,3.1857,3.1838,3.1934,3.1934,3.1934,3.1934,3.1648,3.1648,3.173,3.1782,3.1834,3.1857,3.1944,3.198,3.2014,3.2034,3.2022,3.1996,3.1988,3.1994,3.1984,3.1966,3.2092,3.2093,3.2093,3.1719,3.1725,3.1796,3.1827,3.1878,3.1923,3.2005,3.2065,3.2099,3.2099,3.205,3.2043,3.2003,3.1988,3.199,3.1974,3.1942,0,0]}]]